Location: Les Moreaux
(47.2278°N, 1.4966°E)
Time: 22:29:09
(UTC+00:00)

GP-B - Pass Details

Date: 19 May 2025
Orbit: 619 x 623 km, 89.8° (Epoch: 12 June)

Event Time Altitude Azimuth Distance (km) Brightness Sun altitude
Rises 23:09:47 0° 8° (N) 2,913 7.8 -22.2°
Reaches altitude 10° 23:12:09 10° 17° (NNE) 2,001 6.5 -22.2°
Maximum altitude 23:16:14 37° 85° (E) 972 4.0 -22.3°
Enters shadow 23:16:37 36° 98° (E) 985 3.9 -22.4°
